Location: Lafig�re
(44.4503°N, 4.0357°E)
Time: 16:00:11
(UTC+00:00)

Cosmos 2150 Rocket - Pass Details

Date: 24 September 2020
Orbit: 749 x 808 km, 74.0° (Epoch: 25 October)

Event Time Altitude Azimuth Distance (km) Brightness Sun altitude
Rises 18:45:01 0° 204° (SSW) 3,269 7.4 -12.9°
Reaches altitude 10° 18:47:23 10° 206° (SSW) 2,353 6.7 -13.3°
Maximum altitude 18:52:45 75° 292° (WNW) 831 4.3 -14.3°
Drops below altitude 10° 18:58:13 10° 18° (NNE) 2,396 6.5 -15.2°
Sets 19:00:40 0° 20° (NNE) 3,334 7.3 -15.6°
